STARLINK-1357, 45565

Orbit data source: Space-Track

STARLINK-1357, 45565 is a payload satellite owned by SpaceX/Seattle (US) in LEO that was launched on Wed, 22 Apr 2020 UTC via an FALCON 9 launch vehicle from the Air Force Eastern Test Range (AFETR). Payload-class satellites include a variety of spacecraft equipped with specific instruments for various scientific and technological missions. These include communications satellites like Starlink; space stations such as the ISS; scientific satellites like the Hubble; Earth observation satellites from companies like Planet Labs, Umbra, and HawkEye 360; GPS; miniature CubeSats for education and research; and military/defense satellites.

Loading next visibility...
Identifier
45565, 2020-025AL
Orbit
LEO
Last TLE update
15 hours ago
Origin
Manufacturer
SpaceX/Seattle
Mission
Operational Commercial Communications
Bus & Motor
STARLINK, Unknown motor
Mass
260 kg wet, ~248 kg dry
Launch date (UTC)
2020-04-22 (5 years ago)
Launch vehicle
FALCON 9
Launch site
Air Force Eastern Test Range (AFETR)
Object type
Payload
Rocket body
Debris
Shape & HBR
Box + 1 Pan, 8.86 m
Radar Cross Section
13.562 m², Large (>1 m²)

Expand to show TLE details & history

TLE from 15 hours ago
0 STARLINK-1357
1 45565U 20025AL  25115.20108072  .00003068  00000-0  22473-3 0  9996
2 45565  53.0545  76.3688 0001462 104.7223 255.3929 15.06409585276776
Epoch: 2025-04-25T04:49Z
Definitive object data (Epoch: 2025-04-25T04:49:33.374Z)
Latitude
0.00007°
Longitude
150.51823°
Altitude
548.317 km
Speed
7.589 km/s
True Right ascension
05h 05m 28s
True Declination
0° 00' 00"
Sunlit
Object was in daylight at TLE epoch
Visualization TLE readout
Latitude
-23.03308°
Longitude
-13.79442°
Altitude
553.948 km
Speed
7.585 km/s
Apparent Right ascension
16h 56m 00s
Apparent Declination
-32° 40' 50"
Sunlit
Object is in full shadow
Visualization observer readout
Local Sidereal Time
03:20:43
Azimuth
283.237° WNW
Elevation
-69.563°
Doppler factor
1
Orbital elements
Apogee altitude
548.465 km
Perigee altitude
546.44 km
Semi-major axis
6,925.59 km
Eccentricity
0.0001462
Inclination
53.0545°
RAAN
76.3688°
Arg. of periapsis
104.7223°
True anomaly
255.37669°
Mean anomaly
255.3929°
Eccentric anomaly
255.38479°
Mean motion
3.76581 °/min
BSTAR
0.00022473
Orbital period
95.6 mins
Loading maneuver chart data...
Loading SW <> Apogee altitude chart data...
Loading historical data...
Loading historical data...
Loading historical data...
Loading historical data...
Loading historical data...
Loading historical data...
Loading historical data...

STARLINK-1357 Visibility forecast

Observer location: undefined°, undefined°

Span
Click to sort rows by Start time (UTC) header in descending order
Start Az.
Max El. time (UTC)
Max El. Az.
Max El.
End time (UTC)
End Az.
6 mins2025-04-26 00:07:50.960Z229.445° WSW2025-04-26 00:09:50.960Z230.797° WSW44.169°2025-04-26 00:13:50.960Z50.198° ENE
4 mins2025-04-26 01:48:50.960Z312.435° NW2025-04-26 01:49:50.960Z332.244° NNW19.668°2025-04-26 01:52:50.960Z24.548° NE
4 mins2025-04-26 05:09:50.960Z346.227° N2025-04-26 05:11:50.960Z24.239° NE19.613°2025-04-26 05:13:50.960Z60.364° ENE
6 mins2025-04-26 06:48:50.960Z310.431° NW2025-04-26 06:51:50.960Z115.597° SE44.806°2025-04-26 06:54:50.960Z130.022° SE
|